Home   Weather   Oradea   Past weeks

Flag for Romania Past Weather in Oradea, Romania — Yesterday and Last 2 Weeks

Now
55 °F

Sunny.


Feels Like: 52 °F
Forecast: 41 / 52 °F
Wind: 13 mph from South

Location: Oradea Airport

Current Time: Feb 28, 2017 at 10:03:59 am

Latest Report: Feb 28, 2017 at 9:00 am


Visibility: 10 mi

Pressure: 29.83 "Hg

Humidity: 59%

Dew Point: 41 °F

Location of OradeaLocation

Past Weather in Oradea — Graph

°F

Oradea Temperature Yesterday

Maximum temperature yesterday: 55 °F (at 2:30 pm)
Minimum temperature yesterday: 36 °F (at 2:00 am)
Average temperature yesterday: 44 °F

High & Low Weather Summary for the Past Weeks

 TemperatureHumidityPressure
High55 °F (Feb 23, 9:30 pm)100% (Feb 13, 10:30 am)30.66 "Hg (Feb 13, 10:30 am)
Low23 °F (Feb 16, 5:00 am)30% (Feb 26, 2:30 pm)29.68 "Hg (Feb 24, 3:30 am)
Average36 °F83%30.18 "Hg
* Reported Feb 13 8:00 am — Feb 28 8:30 am, Oradea, Weather by CustomWeather, © 2017

Note: Actual official high and low records may vary slightly from our data, if they occured in-between our weather recording intervals... More about our weather records

Advertising

Oradea Weather History for the Previous 24 Hours

Scroll right to see more
 ConditionsComfort  
Time TempWeatherWind HumidityBarometerVisibility
8:30 am
Tue, Feb 28
54 °FSunny.12 mph63%29.83 "Hg10 mi
8:00 am50 °FSunny.13 mph71%29.83 "Hg10 mi
7:30 am50 °FSunny.13 mph71%29.83 "Hg10 mi
7:00 am50 °FClear.13 mph71%29.83 "Hg10 mi
6:30 am50 °FClear.12 mph71%29.83 "Hg10 mi
6:00 am50 °FClear.14 mph71%29.83 "Hg10 mi
5:30 am50 °FClear.15 mph71%29.83 "Hg10 mi
5:00 am50 °FClear.14 mph71%29.83 "Hg10 mi
4:30 am50 °FPassing clouds.14 mph71%29.83 "HgN/A
4:00 am54 °FPassing clouds.17 mph58%29.83 "Hg6 mi
3:30 am54 °FPassing clouds.14 mph58%29.83 "Hg4 mi
3:00 am48 °FPartly cloudy.7 mph71%29.83 "HgN/A
2:30 am48 °FPassing clouds.6 mph71%29.83 "HgN/A
2:00 am48 °FPassing clouds.6 mph71%29.86 "HgN/A
1:30 am46 °FOvercast.7 mph71%29.86 "HgN/A
1:00 am45 °FPassing clouds.6 mph76%29.86 "HgN/A
12:30 am45 °FPartly cloudy.6 mph76%29.89 "HgN/A
12:00 am45 °FPassing clouds.6 mph71%29.89 "HgN/A
11:30 pm
Mon, Feb 27
45 °FPassing clouds.7 mph71%29.89 "Hg6 mi
11:00 pm43 °FPassing clouds.7 mph76%29.89 "Hg5 mi
10:30 pm43 °FPartly cloudy.7 mph76%29.92 "Hg5 mi
10:00 pm45 °FClear.6 mph71%29.92 "Hg10 mi
9:30 pm43 °FClear.7 mph76%29.92 "Hg10 mi
9:00 pm43 °FClear.6 mph76%29.95 "Hg10 mi
8:30 pm45 °FClear.6 mph71%29.95 "Hg10 mi
8:00 pm45 °FClear.6 mph71%29.95 "Hg10 mi
7:30 pm45 °FClear.2 mph76%29.95 "Hg10 mi
7:00 pm46 °FClear.No wind71%29.98 "Hg10 mi
6:30 pm48 °FClear.No wind66%29.98 "Hg10 mi
6:00 pm50 °FSunny.3 mph62%29.98 "Hg10 mi
5:30 pm54 °FSunny.5 mph51%29.98 "Hg10 mi
5:00 pm54 °FSunny.6 mph51%29.98 "Hg10 mi
4:30 pm54 °FSunny.8 mph44%29.98 "Hg10 mi
4:00 pm54 °FSunny.8 mph47%30.01 "Hg10 mi
3:30 pm55 °FRefreshingly cool.6 mph47%30.01 "HgN/A
3:00 pm54 °FSunny.7 mph51%30.01 "Hg10 mi
2:30 pm55 °FPassing clouds.6 mph47%30.01 "HgN/A
2:00 pm54 °FSunny.8 mph54%30.04 "Hg10 mi
1:30 pm54 °FSunny.8 mph51%30.04 "Hg10 mi
1:00 pm54 °FPassing clouds.7 mph54%30.07 "HgN/A
12:30 pm52 °FPassing clouds.3 mph54%30.07 "HgN/A
12:00 pm52 °FPassing clouds.3 mph54%30.07 "HgN/A
11:30 am52 °FSunny.2 mph54%30.07 "Hg10 mi
11:00 am50 °FPassing clouds.3 mph54%30.09 "HgN/A
10:30 am48 °FSunny.6 mph58%30.09 "Hg10 mi
10:00 am45 °FSunny.6 mph66%30.09 "Hg10 mi
Weather by CustomWeather, © 2017

See weather overviewHow to use our weather pages